Weather History for Ashtabula, OH

Change the Weather History Date:

Sunday, September 8, 2013

  Actual Average (KYNG) Record (KYNG)
Temperature  
Mean Temperature 61 °F 65 °F  
Max Temperature 70 °F 76 °F 97 °F (1939)
Min Temperature 52 °F 54 °F 37 °F (1986)
Degree Days  
Heating Degree Days 4 3  
Month to date heating degree days 17  
Since 1 July heating degree days 55  
Cooling Degree Days 0 2  
Month to date cooling degree days 23  
Year to date cooling degree days 509  
Growing Degree Days 11 (Base 50)    
Moisture  
Dew Point 57 °F    
Average Humidity 76    
Maximum Humidity 90    
Minimum Humidity 50    
Precipitation  
Precipitation 0.00 in 0.12 in 4.09 in (2004)
Month to date precipitation 0.99  
Year to date precipitation 27.21  
Snow  
Snow 0.00 in 0.00 in - ()
Month to date snowfall 0.0  
Since 1 July snowfall 0.0  
Since 1 September snowfall 0.0  
Snow Depth -    
Sea Level Pressure  
Sea Level Pressure 30.01 in    
Wind  
Wind Speed 3 mph (NE)    
Max Wind Speed 12 mph    
Max Gust Speed 18 mph    
Visibility 8 miles    
Events      
T = Trace of Precipitation, MM = Missing Value Source: NWS Daily Summary

Daily Weather History Graph

Daily Weather History Graph

Search for Another Location

Airport:

Trip Planner

Search our weather history database for the weather conditions in past years. The results will help you decide how hot, cold, wet, or windy it might be!

Date:

Astronomy

Sep. 08, 2013 Rise Set
Actual Time 6:56 AM EDT 7:43 PM EDT
Civil Twilight 6:27 AM EDT 8:12 PM EDT
Nautical Twilight 5:54 AM EDT 8:45 PM EDT
Astronomical Twilight 5:19 AM EDT 9:20 PM EDT
Moon 10:15 AM EDT (9/8) 9:14 PM EDT (9/8)
Length of Visible Light 13h 44m
Length of Day
12h 47m
Waxing Crescent, 11% of the Moon is Illuminated
Sep 8
Waxing Crescent
Sep 12
First Quarter
Sep 19
Full
Sep 26
Last Quarter
Oct 4
New

Hourly Weather History & Observations

Time (EDT) Temp. Dew Point Humidity Pressure Visibility Wind Dir Wind Speed Gust Speed Precip Events Conditions
12:53 AM 68.0 °F 63.0 °F 84% 29.93 in 10.0 mi Calm Calm - N/A   Overcast
1:53 AM 68.0 °F 62.1 °F 81% 29.92 in 10.0 mi Calm Calm - N/A   Overcast
2:53 AM 64.9 °F 62.1 °F 90% 29.91 in 6.0 mi Calm Calm - N/A   Mostly Cloudy
3:53 AM 64.9 °F 62.1 °F 90% 29.91 in 6.0 mi NNE 5.8 mph - N/A   Mostly Cloudy
4:53 AM 64.0 °F 61.0 °F 90% 29.92 in 4.0 mi Calm Calm - N/A   Scattered Clouds
5:53 AM 64.0 °F 60.1 °F 87% 29.93 in 4.0 mi Calm Calm - N/A   Mostly Cloudy
6:02 AM 64.4 °F 60.8 °F 88% 29.95 in 4.0 mi Calm Calm - N/A   Overcast
6:09 AM 64.4 °F 60.8 °F 88% 29.95 in 5.0 mi Calm Calm - N/A   Overcast
6:50 AM 66.2 °F 62.6 °F 88% 29.96 in 4.0 mi Calm Calm - N/A   Overcast
6:53 AM 66.0 °F 63.0 °F 90% 29.94 in 4.0 mi Calm Calm - N/A   Overcast
7:53 AM 68.0 °F 63.0 °F 84% 29.97 in 4.0 mi NNE 4.6 mph - N/A   Haze
8:37 AM 68.0 °F 62.6 °F 83% 30.00 in 10.0 mi Variable 6.9 mph - N/A   Overcast
8:53 AM 68.0 °F 62.1 °F 81% 29.99 in 10.0 mi NE 8.1 mph - N/A   Overcast
9:53 AM 66.9 °F 61.0 °F 81% 30.02 in 10.0 mi NNE 6.9 mph - N/A   Overcast
10:04 AM 66.2 °F 60.8 °F 83% 30.03 in 10.0 mi NE 9.2 mph 16.1 mph N/A   Overcast
10:53 AM 66.9 °F 59.0 °F 76% 30.03 in 10.0 mi NE 9.2 mph 18.4 mph N/A   Overcast
11:53 AM 66.9 °F 57.9 °F 73% 30.04 in 10.0 mi NE 11.5 mph 18.4 mph N/A   Overcast
12:53 PM 69.1 °F 57.0 °F 65% 30.06 in 10.0 mi ENE 10.4 mph 16.1 mph N/A   Overcast
1:17 PM 69.8 °F 55.4 °F 60% 30.07 in 10.0 mi NNE 11.5 mph - N/A   Scattered Clouds
1:53 PM 70.0 °F 54.0 °F 57% 30.06 in 10.0 mi NNE 9.2 mph - N/A   Clear
2:53 PM 70.0 °F 53.1 °F 55% 30.06 in 10.0 mi NNE 6.9 mph - N/A   Clear
3:53 PM 69.1 °F 51.1 °F 53% 30.06 in 10.0 mi NE 8.1 mph - N/A   Clear
4:53 PM 68.0 °F 48.9 °F 50% 30.06 in 10.0 mi ENE 8.1 mph - N/A   Clear
5:53 PM 66.9 °F 48.9 °F 52% 30.07 in 10.0 mi East 6.9 mph - N/A   Clear
6:53 PM 64.0 °F 48.0 °F 56% 30.07 in 10.0 mi ENE 3.5 mph - N/A   Clear
7:53 PM 57.0 °F 50.0 °F 77% 30.08 in 10.0 mi Calm Calm - N/A   Clear
8:53 PM 55.9 °F 48.0 °F 75% 30.09 in 10.0 mi ENE 4.6 mph - N/A   Clear
9:53 PM 53.1 °F 46.9 °F 80% 30.09 in 10.0 mi SSE 3.5 mph - N/A   Clear
10:53 PM 52.0 °F 46.9 °F 83% 30.11 in 10.0 mi East 4.6 mph - N/A   Clear
11:53 PM 52.0 °F 46.9 °F 83% 30.10 in 10.0 mi ESE 4.6 mph - N/A   Clear